Printer-friendly version

IAU Minor Planet Center

Minor Planet Center

MPEC 2008-E35 : 2004 PG115

The following Minor Planet Electronic Circular may be linked-to from your own Web pages, but must not otherwise be redistributed electronically.


Read MPEC 2008-E34 Read MPEC 2008-E36


M.P.E.C. 2008-E35                                Issued 2008 Mar. 4, 04:16 UT

     The Minor Planet Electronic Circulars contain information on unusual
         minor planets and routine data on comets.  They are published
   on behalf of Commission 20 of the International Astronomical Union by the
          Minor Planet Center, Smithsonian Astrophysical Observatory,
                          Cambridge, MA 02138, U.S.A.

             Prepared using the Tamkin Foundation Computer Network

                              MPC@CFA.HARVARD.EDU
          URL http://www.cfa.harvard.edu/iau/mpc.html  ISSN 1523-6714

                                  2004 PG115

                           Revision to MPEC 2007-R03

Additional Observations:
     K04PB5G  C2006 08 28.15630 20 39 45.13 -01 14 53.9          20.9   EE035705
     K04PB5G  C2006 08 28.15962 20 39 45.11 -01 14 54.0          21.8   EE035705
     K04PB5G  C2007 09 05.17070 20 47 15.43 -00 40 03.0          21.0   EE035705
     K04PB5G  C2007 09 05.17402 20 47 15.43 -00 40 03.1          22.0   EE035705
     K04PB5G  C2007 09 14.13999 20 46 42.52 -00 44 43.3          21.0   EE035705
     K04PB5G  C2007 09 14.14331 20 46 42.51 -00 44 43.4          22.1   EE035705
     K04PB5G  C2007 09 22.13756 20 46 18.16 -00 48 58.3          21.3   EE035705
     K04PB5G  C2007 09 22.13839 20 46 18.16 -00 48 58.1          22.5   EE035705
     K04PB5G  C2007 10 08.18162 20 45 46.08 -00 57 19.0          21.2   EE035705
     K04PB5G  C2007 10 08.18494 20 45 46.08 -00 57 19.3          22.3   EE035705
     K04PB5G  C2007 10 09.17900 20 45 44.90 -00 57 49.0          21.1   EE035705
     K04PB5G  C2007 10 09.18232 20 45 44.89 -00 57 49.1          22.1   EE035705
     K04PB5G  C2007 10 10.18473 20 45 43.81 -00 58 18.8          21.0   EE035705
     K04PB5G  C2007 10 10.18805 20 45 43.81 -00 58 18.9          22.1   EE035705
     K04PB5G  C2007 10 13.18172 20 45 41.18 -00 59 46.6          21.1   EE035705
     K04PB5G  C2007 10 13.18504 20 45 41.18 -00 59 46.7          22.1   EE035705
     K04PB5G  C2007 10 15.18597 20 45 39.94 -01 00 44.1          21.0   EE035705
     K04PB5G  C2007 10 15.18929 20 45 39.93 -01 00 44.1          22.0   EE035705
     K04PB5G  C2007 10 20.17183 20 45 38.68 -01 03 01.7          21.1   EE035705
     K04PB5G  C2007 10 20.17515 20 45 38.67 -01 03 01.9          22.2   EE035705
     K04PB5G  C2007 10 21.17032 20 45 38.74 -01 03 28.4          21.2   EE035705
     K04PB5G  C2007 10 21.17115 20 45 38.74 -01 03 28.3          22.3   EE035705
     K04PB5G  C2007 10 29.18082 20 45 43.11 -01 06 48.7          20.9   EE035705
     K04PB5G  C2007 10 29.18414 20 45 43.14 -01 06 48.9          21.8   EE035705
     K04PB5G  C2007 11 04.09499 20 45 50.78 -01 09 00.0          21.0   EE035705
     K04PB5G  C2007 11 04.09831 20 45 50.78 -01 09 00.1          21.9   EE035705
     K04PB5G  C2007 11 06.09596 20 45 54.23 -01 09 40.8          21.0   EE035705
     K04PB5G  C2007 11 06.09928 20 45 54.22 -01 09 40.9          22.0   EE035705
     K04PB5G  C2007 11 09.09398 20 46 00.20 -01 10 38.3          21.1   EE035705
     K04PB5G  C2007 11 09.09730 20 46 00.21 -01 10 38.5          22.1   EE035705
     K04PB5G  C2007 11 14.09420 20 46 12.29 -01 12 04.1          21.0   EE035705
     K04PB5G  C2007 11 14.09752 20 46 12.29 -01 12 04.1          22.0   EE035705
     K04PB5G  C2007 11 18.09891 20 46 23.86 -01 13 03.0          21.1   EE035705
     K04PB5G  C2007 11 18.10223 20 46 23.83 -01 13 03.4          22.1   EE035705

Observer details:
705 Apache Point.  Observer SDSS Collaboration.  Measurers A. C. Becker,
    A. W. Puckett, J. Kubica.  2.5-m f/5 Ritchey-Chretien + CCD.

First and last observations above in comparison with prediction:
Residuals in seconds of arc (or two decimals in degrees) and reference
060828 705 0.93+ 0.14+    071118 705 1.41+ 0.19+    MPO124443

Orbital elements:
2004 PG115
Epoch 2008 May 14.0 TT = JDT 2454600.5                  MPC
M   2.06212              (2000.0)            P               Q
n   0.00112108     Peri.   75.70451     +0.55904165     +0.80054295
a  91.7722008      Node   230.37842     -0.82678475     +0.51861873
e   0.6033408      Incl.   16.27584     -0.06244522     +0.30027587
P 879              H    5.0           G   0.15           U   3
Residuals in seconds of arc
040618 675  0.6-  0.1- Y  071008 705  0.1-  0.1+    071021 705  0.0   0.1+
040619 675  0.1+  0.3+ Y  071008 705  0.0   0.1-    071029 705  0.1-  0.0
040804 644  0.1-  0.0     071009 705  0.1-  0.0     071029 705  0.3+  0.1-
040804 644  0.3+  0.1-    071009 705  0.1-  0.0     071104 705  0.0   0.0
040804 644  0.2+  0.0     071010 705  0.0   0.1+    071104 705  0.1-  0.1-
060828 705  0.2+  0.1-    071010 705  0.0   0.1+    071106 705  0.1+  0.0
060828 705  0.1+  0.1-    071013 705  0.0   0.1+    071106 705  0.2-  0.1-
070905 705  0.0   0.2+    071013 705  0.1+  0.1+    071109 705  0.1+  0.0
070905 705  0.2+  0.2+    071015 705  0.1+  0.0     071109 705  0.1+  0.2-
070914 705  0.0   0.1+    071015 705  0.0   0.1+    071114 705  0.1+  0.1-
070914 705  0.1+  0.1+    071020 705  0.1+  0.1+    071114 705  0.0   0.0
070922 705  0.1-  0.1-    071020 705  0.1-  0.0     071118 705  0.1+  0.0
070922 705  0.0   0.1+    071021 705  0.0   0.0     071118 705  0.5-  0.4-

Ephemeris:
2004 PG115               a,e,i = 91.77, 0.60, 16                 q = 36.402
Date    TT    R. A. (2000) Decl.     Delta      r     Elong.  Phase     V
2008 03 05    20 57.67   -00 40.7   37.451   36.612    31.9     0.8    20.8
2008 03 15    20 58.70   -00 33.6   37.366   36.615    40.5     1.0    20.8
2008 03 25    20 59.61   -00 26.4   37.259   36.617    49.4     1.2    20.8
2008 04 04    21 00.38   -00 19.2   37.133   36.619    58.5     1.3    20.9
2008 04 14    21 01.01   -00 12.2   36.992   36.622    67.6     1.5    20.9
2008 04 24    21 01.48   -00 05.7   36.840   36.624    76.8     1.5    20.9
2008 05 04    21 01.78   +00 00.4   36.682   36.627    86.0     1.6    20.8
2008 05 14    21 01.91   +00 05.7   36.522   36.629    95.3     1.6    20.8
2008 05 24    21 01.86   +00 10.2   36.365   36.632   104.5     1.5    20.8
2008 06 03    21 01.66   +00 13.7   36.215   36.634   113.7     1.5    20.8
2008 06 13    21 01.29   +00 16.2   36.077   36.636   122.8     1.3    20.8
2008 06 23    21 00.79   +00 17.7   35.954   36.639   131.8     1.2    20.8
2008 07 03    21 00.18   +00 18.1   35.850   36.641   140.6     1.0    20.7
2008 07 13    20 59.47   +00 17.4   35.769   36.644   149.0     0.8    20.7
2008 07 23    20 58.69   +00 15.7   35.713   36.647   156.5     0.6    20.7
2008 08 02    20 57.87   +00 13.0   35.683   36.649   161.9     0.5    20.7
2008 08 12    20 57.04   +00 09.4   35.681   36.652   163.1     0.5    20.7
2008 08 22    20 56.25   +00 05.1   35.707   36.654   159.2     0.6    20.7
2008 09 01    20 55.50   +00 00.3   35.760   36.657   152.3     0.7    20.7
2008 09 11    20 54.84   -00 04.9   35.840   36.659   144.0     0.9    20.7
2008 09 21    20 54.29   -00 10.3   35.943   36.662   135.2     1.1    20.8
2008 10 01    20 53.88   -00 15.7   36.067   36.665   126.0     1.3    20.8
2008 10 11    20 53.62   -00 20.9   36.209   36.667   116.6     1.4    20.8
2008 10 21    20 53.53   -00 25.7   36.364   36.670   107.1     1.5    20.8
2008 10 31    20 53.61   -00 29.9   36.528   36.673    97.6     1.5    20.8
2008 11 10    20 53.87   -00 33.4   36.696   36.675    88.0     1.5    20.8
2008 11 20    20 54.31   -00 36.1   36.863   36.678    78.4     1.5    20.9
2008 11 30    20 54.92   -00 37.8   37.024   36.681    68.9     1.4    20.9
2008 12 10    20 55.68   -00 38.4   37.175   36.683    59.4     1.3    20.9
2008 12 20    20 56.58   -00 38.0   37.310   36.686    50.0     1.2    20.9
2008 12 30    20 57.60   -00 36.4   37.427   36.689    40.9     1.0    20.8
2009 01 09    20 58.71   -00 33.8   37.521   36.691    32.1     0.8    20.8

Brian G. Marsden             (C) Copyright 2008 MPC           M.P.E.C. 2008-E35

Read MPEC 2008-E34 Read MPEC 2008-E36


Our Web policy. Index to the CBAT/MPC/ICQ pages.


Valid HTML 4.01!